Location: Bermeries
(50.2863°N, 3.7551°E)
Time: 02:57:34
(UTC+00:00)

Cosmos 676 Rocket - Pass Details

Date: 23 May 2024
Orbit: 752 x 781 km, 74.0° (Epoch: 21 June)

Event Time Altitude Azimuth Distance (km) Brightness Sun altitude
Exits shadow 00:42:53 30° 174° (S) 1,384 4.8 -17.8°
Maximum altitude 00:45:23 57° 108° (ESE) 915 4.3 -17.7°
Drops below altitude 10° 00:50:37 10° 31° (NNE) 2,348 7.7 -17.5°
Sets 00:53:02 0° 27° (NNE) 3,280 8.9 -17.3°
